Regional Weather Roundup
Issued by NWS

Current Version | Previous Version | Text Only | Print | Product List | Glossary Off
Versions: 1 2 3 4 5 6 7 8 9 10 11 12 13 14 15 16 17 18 19 20 21 22 23 24 25 26 27 28 29 30 31 32 33 34 35 36 37 38 39 40 41 42 43 44 45 46 47 48 49 50

000
ASUS44 KMEG 171510
RWRTN
TENNESSEE HOURLY STATE WEATHER ROUNDUP
NATIONAL WEATHER SERVICE MEMPHIS TN
1000 AM CDT WED SEP 17 2014

TNZ002-004-019-021-049-052-054-088>092-171600-
WEST TENNESSEE

CITY           SKY/WX    TMP DP  RH WIND       PRES   REMARKS
MEMPHIS INTL   CLOUDY    72  57  60 E7        30.02S
NWS MEMPHIS      N/A     67 N/A N/A MISG        N/A
JACKSON        PTSUNNY   67  56  67 E3        30.04R
DYERSBURG      CLOUDY    63  48  59 CALM      30.06R
UNION CITY     SUNNY     63  55  77 CALM      30.05R
PARIS          SUNNY     61  55  82 CALM      30.07R
HUNTINGDON     PTSUNNY   64  55  72 S3        30.06R
LEXINGTON      SUNNY     66  57  72 CALM      30.04R
SAVANNAH       SUNNY     66  61  82 VRB3      30.04R
$$

TNZ008-025-027-028-033-062-065-066-171600-
NORTH MIDDLE TENNESSEE

CITY           SKY/WX    TMP DP  RH WIND       PRES   REMARKS
NASHVILLE      CLOUDY    60  57  89 NE3       30.06R FOG
DICKSON        PTSUNNY   55  55 100 CALM      30.04S
PORTLAND       MOSUNNY   55  55 100 E5        30.04R
CLARKSVILLE    FOG       55  55 100 CALM      30.05R VSB 1/4
LEBANON        CLOUDY    60  55  83 NE3       30.04R
SMYRNA         CLOUDY    61  57  86 N3        30.06R
COOKEVILLE     MOSUNNY   63  57  82 CALM      30.02F
GALLATIN       CLOUDY    59  58  96 CALM      30.06R
CROSSVILLE     PTSUNNY   61  51  70 VRB3      30.05S
$$

TNZ061-075-076-078-094-096-097-171600-
SOUTH MIDDLE TENNESSEE

CITY           SKY/WX    TMP DP  RH WIND       PRES   REMARKS
LEWISBURG      CLOUDY    57  57 100 N5        30.04R VSB 1/2
FAYETTEVILLE   SUNNY     66  55  68 N6        30.02S
TULLAHOMA      CLOUDY    63  57  82 N5        30.04S
WINCHESTER     PTSUNNY   66  61  82 N7        30.02S
MCMINNVILLE      N/A     64  63  94 NE6       30.03S
COLUMBIA       CLOUDY    57  57 100 CALM      30.03R
SHELBYVILLE    CLOUDY    63  61  94 N5        30.05R
$$

TNZ017-018-042-046-047-171600-
NORTHEAST TENNESSEE

CITY           SKY/WX    TMP DP  RH WIND       PRES   REMARKS
TRI CITIES     PTSUNNY   67  57  70 CALM      30.03S
ELIZABETHTON   MOSUNNY   66  59  77 SW3       30.02F
$$

TNZ012-013-036-069-073-074-171600-
CENTRAL EAST TENNESSEE

CITY           SKY/WX    TMP DP  RH WIND       PRES   REMARKS
KNOXVILLE      PTSUNNY   65  58  78 VRB3      30.00F
OAK RIDGE      SUNNY     67  54  63 VRB6      30.03F
GATLINBURG     MOSUNNY   64  57  77 CALM      29.99F
MORRISTOWN     SUNNY     66  59  77 CALM      30.02S
$$

TNZ083-085-099-171600-
SOUTHEAST TENNESSEE

CITY           SKY/WX    TMP DP  RH WIND       PRES   REMARKS
CHATTANOOGA    PTSUNNY   69  58  67 NE8       29.99F
$$

SKY/WX REPORTED AS FAIR MEANS FEW OR NO CLOUDS BELOW
12 THOUSAND FEET.




USA.gov is the U.S. government's official web portal to all federal, state and local government web resources and services.